Location: Cudham
(51.3000°N, 0.0667°E)
Time: 14:35:39
(UTC+00:00)

Cosmos 1408 Rocket - Pass Details

Date: 19 May 2025
Orbit: 594 x 625 km, 82.6° (Epoch: 17 June)

Event Time Altitude Azimuth Distance (km) Brightness Sun altitude
Rises 22:54:11 0° 351° (N) 2,887 8.7 -17.4°
Reaches altitude 10° 22:56:27 10° 354° (N) 1,973 7.4 -17.5°
Maximum altitude 23:00:47 66° 77° (ENE) 664 3.6 -17.7°
Enters shadow 23:02:24 36° 148° (SSE) 957 4.0 -17.7°
